Regional Weather Roundup
Issued by NWS

Home | Current Version | Previous Version | Graphics & Text | Print | Product List | Glossary On
Versions: 1 2 3 4 5 6 7 8 9 10 11 12 13 14 15 16 17 18 19 20 21 22 23 24 25 26 27 28 29 30 31 32 33 34 35 36 37 38 39 40 41 42 43 44 45 46 47 48 49 50
000
ASUS45 KSLC 051410
RWRUT

UTAH REGIONAL WEATHER ROUNDUP
NATIONAL WEATHER SERVICE SALT LAKE CITY UT
700 AM MST FRI FEB 05 2016

UTZ001>011-023>025-051500-

NORTHERN UTAH

CITY           SKY/WX    TMP DP  RH WIND       PRES   REMARKS
BRIGHAM CITY   CLOUDY    26  24  91 CALM      30.55S
HILL AFB       FLURRIES  27  23  86 SE3       30.51S
LOGAN          CLOUDY    22  20  92 CALM      30.52F FOG
OGDEN          CLOUDY    28  26  92 CALM      30.52S FOG
PROVO AIRPORT  LGT SNOW  21  18  86 CALM      30.55R
SALT LAKE CITY LGT SNOW  28  24  85 CALM      30.54R FOG
VERNAL         CLOUDY    11   7  84 CALM      30.49R
WENDOVER       CLOUDY    23  18  80 CALM      30.53S
HEBER CITY     CLOUDY    18  14  86 CALM      30.48R FOG
WEST JORDAN    CLOUDY    25  25 100 CALM      30.53R

$$

UTZ012>022-026-027-051500-

SOUTHERN/CENTRAL UTAH

CITY           SKY/WX    TMP DP  RH WIND       PRES   REMARKS
BLANDING       PTCLDY     9   7  92 E6        30.50R WCI  -1
BRYCE CANYON   PTCLDY    16   9  74 N8        30.41R WCI   5
CEDAR CITY     PTCLDY     6   3  87 E5        30.47R WCI  -3
DELTA          PTCLDY    12  10  92 CALM      30.55R
HANKSVILLE     CLOUDY    12  10  92 CALM      30.57R
MILFORD        CLOUDY     2  -1  88 S8        30.52S WCI -12
MOAB/CYNLANDS  CLOUDY    15  13  91 NW7       30.53R FOG     WCI   5
PRICE          PTCLDY     2  -3  80 NW5       30.43R HAZE    WCI  -8
ST GEORGE      MOSUNNY   30  21  69 SE5       30.52R WCI  25

$$

REGIONAL REPORTS     COLORADO/ARIZONA

CITY           SKY/WX    TMP DP  RH WIND       PRES   REMARKS
CRAIG, CO      LGT SNOW  10   6  84 E3        30.42R FOG
GRAND JUNCTION CLOUDY    16  15  96 CALM      30.52R FOG
RIFLE          LGT SNOW  14  10  84 CALM      30.49R FOG
MONTROSE       CLOUDY     6   2  83 S6        30.51R WCI  -4
CORTEZ         CLOUDY     0  -4  83 NE8       30.42R WCI -14
PAGE, AZ       CLEAR     24  18  77 CALM      30.48R
GRAND CANYON   PTCLDY     7   3  84 CALM      30.41R
KINGMAN        CLEAR     33  21  61 E7        30.40R WCI  27
FLAGSTAFF      PTCLDY    22  13  68 E22G31    30.34R WCI   6

$$

REGIONAL REPORTS    NEVADA/IDAHO/WYOMING

CITY           SKY/WX    TMP DP  RH WIND       PRES   REMARKS
LAS VEGAS, NV  PTCLDY    41  23  48 N5        30.44R
ELY            PTCLDY    -1  -5  82 S15       30.51S WCI -21
ELKO           MOCLDY     9   6  88 CALM      30.54S
POCATELLO, ID  CLOUDY    19  17  92 NE7       30.52S WCI  10
BURLEY         CLOUDY    32  29  88 CALM      30.49S
EVANSTON, WY   CLOUDY    19  14  81 SW9       30.43R WCI   8
ROCK SPRINGS   CLOUDY    12   8  84 W16       30.37R WCI  -5

$$



USA.gov is the U.S. government's official web portal to all federal, state and local government web resources and services.